Погода в Дашогузе

Поиск расширенной информации на нашем сайте:

Полезная информация:

Новости сайта



02.01.2020
Опубликован Долгосрочный прогноз погоды по городам России и ближнего зарубежья на январь 2020 года.
Карты: Прогноз на январь и февраль 2020 года, Сравнение прогнозируемой аномалии приземной температуры воздуха на январь 2020 года по разным моделям.




Погода в Дашогузе - сегодня

Время (UTC), дата Ветер
(°,м/с) 
Видим.   Явления Облачность Т
(°С)
Тd
(°С)
f(%) Тe
(°С)
Pmin
(гПа)
dP
(гПа)
Po
(мм)
O2
(г/м3)
Тmin Tmax R s Состояние
почвы
21 22.10.20 250 (З) 10 км    9/0 средняя 
[Ac trans]
+4.6 -0.8 68 +4  1025.4  -0.2  761  302           
00 23.10.20 250 (З) 10 км    9/0 средняя 
[Ac trans]
+2.6 -1 77 +2  1025.7  0.1  761  304           
03 23.10.20 170 (Ю) 10 км    8/0 средняя 
[Ac trans]
+4 -0.6 72 +4  1025.9  0.3  762  303  +2.2        сухая 
06 23.10.20 220 (ЮЗ) 10 км    3/0 средняя 
[Ac trans]
+13.6 +0 39 +14  1026.8  1.3  763  293  +2.2         
09 23.10.20 240 (ЮЗ) 10 км    8/0 средняя 
[Ac trans]
+15.3 +0.6 37 +16  1026.3  -0.5  762  291           
12 23.10.20 360 (С) 10 км    10/5 2000 м средняя 
[Sc|Ac trans]
+14.5 +1.1 40 +15  1026.3  762  291           
15 23.10.20 080 (В) 10 км  в посл. час дождь  9/9 2000 м 
[Sc]
+12.4 +3.2 53 +12  1026.6  0.3  762  293    +15.6  0.0     
18 23.10.20 060 (СВ) 10 км  {дождь}  9/6 2000 м средняя 
[Sc|Ac As]
+11.4 +2.7 55 +11  1026.9  0.2  763  295    +15.6  0.0     
21 23.10.20 100 (В) 10 км    9/6 2000 м средняя 
[Sc|Ac As]
+11.6 +3.2 56 +11  1026.4  -0.5  762  294           
00 24.10.20 130 (ЮВ) 10 км    8/0 средняя 
[Ac trans]
+10.7 +1.5 53 +10  1025.4  -1  761  295           
03 24.10.20 140 (ЮВ) 10 км    9/0 средняя 
[Ac trans]
+9.4 +2.7 63 +9  1026  0.5  762  296  +9        сухая 
06 24.10.20 210 (ЮЗ) 10 км    5/0 средняя 
[Ac trans]
+15.5 -1.4 31 +15  1026.4  0.6  762  291  +9         
09 24.10.20 250 (З) 10 км    ясно 
+18.5 +0 29 +19  1024.7  -1.5  761  287           
12 24.10.20 240 (ЮЗ) 10 км    3/0 средняя 
[Ac trans]
+20 +0.6 27 +20  1024.5  -0.2  761  286           
15 24.10.20 110 (В) 10 км    5/0 верхняя 
[Ci fib]
+12.4 -0.7 40 +12  1025.1  0.4  761  293    +20.3       
18 24.10.20 130 (ЮВ) 10 км    5/0 верхняя 
[Ci fib]
+9.3 +1.3 57 +9  1025.1  -0.2  761  296    +20.3       
21 24.10.20 170 (Ю) 10 км    5/0 верхняя 
[Ci fib]
+9.8 +1.1 55 +9  1024.4  -0.6  761  296           
00 25.10.20 180 (Ю) 10 км    5/0 верхняя 
[Ci fib]
+8.4 -0.5 53 +7  1023.9  -0.5  760  297           
03 25.10.20 180 (Ю) 10 км    4/0 средняя 
[Ac lent]
+8.4 +0.4 57 +7  1024.4  0.5  761  297  +7.4        сухая 
06 25.10.20 200 (Ю) 10 км    3/0 средняя 
[Ac lent]
+17.5 +1.7 35 +17  1025.1  0.9  761  288  +7.4         
09 25.10.20 190 (Ю) 10 км    3/0 верхняя 
[Ci sp]
+21.3 +0.6 25 +21  1022.9  -2  760  284           
12 25.10.20 170 (Ю) 10 км    4/0 верхняя 
[Ci sp]
+21.4 +0 24 +21  1021.6  -1.3  759  284           
15 25.10.20 150 (ЮВ) 10 км    ясно 
+13.5 +0.9 42 +14  1021.7  -0.2  759  291    +22       
18 25.10.20 140 (ЮВ) 10 км    ясно 
+11.1 +1.7 52 +11  1020.9  -0.9  758  293    +22       
21 25.10.20 170 (Ю) 10 км    ясно 
+11 +1.3 51 +10  1019.5  -1.3  757  293           
Время (UTC), дата Ветер
(°,м/с) 
Видим.   Явления Облачность Т
(°С)
Тd
(°С)
f(%) Тe
(°С)
Pmin
(гПа)
dP
(гПа)
Po
(мм)
O2
(г/м3)
Тmin Tmax R s Состояние
почвы

Для получения пояснительной информации подведите курсор к названию столбца.

ПОГОДА в Дашогузе - архив

Всё, что Вы хотите узнать о погоде в Дашогузе - удобно и подробно!

Выберите нужную дату (начиная с 1 января 2019* года) и нажмите кнопку "Найти".
Будут отображены архивные сводки погоды по пункту Дашогуз, начиная с указанной даты.


Отображать данные в формате CSV (для использования в таблицах Excel)


Внимание! Наш архив погоды предназначен исключительно для личного некоммерческого использования в познавательных целях. Если Вам необходимы официальные справки о состоянии погоды (для производственных, юридических, коммерческих и т.п. целей), обращайтесь в органы Росгидромета.

*Примечание: данная дата относится к архиву по метеостанциям СССР (Россия, СНГ, Балтия).
Архив по метеостанциям Зарубежной Европы и Азии (кроме Китая) хранится 10 дней, по другим регионам земного шара (Китай, Африка, Америка, Австралия, Океания) - 1 день.

Дашогуз - район местоположения метеостанции


Название, широта, долгота, высота метеостанции:
Дашогуз (Ташауз) 41.8°ш. 59.8°д. 82 м над ур. моря [Туркменистан]

Дополнительная информация

В oтличие oт бoльшинства пoгoдных сайтoв мы публикуем пoдрoбную метеoинфoрмацию в детальнoм прoфессиoнальнoм фoрмате.

Характеристики температуры и влажнoсти вoздуха измеряются на высoте 2 м в тени вдали oт зданий и деревьев.
Скoрoсть ветра измеряется на высoте 10 м (на урoвне рoста челoвека скoрoсть ветра ниже в 1.5-2 раза). Если метеoстанция нахoдится в гoрoде или в лесу, тo скoрoсть ветра занижена на 2-4 м/с пo сравнению с oткрытым местoм. Скoрoсть ветра над акватoриями крупных рек и oзёр, а также на вершинах хoлмoв на 2-5 м/с выше, чем в oбычных услoвиях.
Атмoсфернoе давление в разных тoчках местнoсти мoжет значительнo oтличаться oт давления на метеoстанции, в зависимoсти oт услoвий рельефа (при пoдъёме на 10 м давление пoнижается примернo на 1 мм рт.ст.).